#timestamp,LO_Frequency,Hit,StdDev 
1691481615.1,286046998.6,N
1691481616.0,286046998.6,N
1691481635.8,286046998.7,N
1691481655.6,286046998.1,N
1691481675.5,286047000.4,N
1691481695.3,286047000.8,N
1691481715.1,286047001.0,N
1691481735.9,286046998.1,N
1691481755.7,286046998.7,N
1691481775.6,286046999.1,N
1691481795.4,286046998.9,N
1691481815.2,286046999.0,N
1691481835.1,286046998.3,N
1691481836.0,286046998.3,N
1691481855.8,286046998.3,N
1691481875.6,286046998.7,N
1691481895.5,286046999.3,N
1691481915.3,286046999.4,N
1691481935.2,286046999.1,N
1691481955.9,286046999.3,N
1691481975.7,286046999.5,N
1691481995.6,286046999.0,N
1691482015.4,286046999.1,N
1691482035.3,286046999.6,N
1691482055.1,286046996.9,Y
1691482056.0,286046996.9,P
1691482075.8,286046999.5,N
1691482095.7,286046998.9,N
1691482115.5,286046996.8,Y
1691482135.3,286047001.2,P
1691482155.2,286047000.0,N
1691482175.0,286046999.9,N
1691482175.9,286046999.9,N
1691482195.8,286047001.0,N
1691482215.6,286047000.7,N
1691482235.4,286046999.9,N
1691482255.3,286046998.1,N
1691482275.1,286047001.1,N
1691482295.8,286047001.1,N
1691482315.7,286047001.0,N
1691482335.5,286047000.9,N
1691482355.4,286047000.7,N
1691482375.2,286046998.7,N
1691482395.0,286046998.6,N
1691482395.9,286046998.6,N
1691482415.8,286046998.8,N
1691482435.6,286046999.2,N
1691482455.4,286046999.3,N
1691482475.3,286046999.4,N
1691482495.1,286046996.6,Y
1691482515.9,286046996.6,P
1691482535.7,286046996.6,N
1691482555.5,286046999.5,N
1691482575.4,286046996.9,N
1691482595.2,286046997.0,N
1691482615.1,286046996.8,N
1691482616.0,286046996.8,N
1691482635.8,286046996.8,N
1691482655.6,286046997.3,N
1691482675.5,286046996.8,N
1691482695.3,286046997.1,N
1691482715.1,286046997.0,N
1691482735.9,286046996.8,Y
1691482755.7,286047000.7,P
1691482775.6,286047000.4,N
1691482795.4,286047000.3,N
1691482815.2,286047000.0,N
1691482835.1,286047000.2,N
1691482836.0,286047000.2,N
1691482855.8,286047000.5,N
1691482875.6,286046998.1,N
1691482895.5,286047001.1,N
1691482915.3,286047000.5,N
1691482935.2,286047000.3,N
1691482955.0,286047000.5,N
1691482955.9,286047000.5,N
1691482975.8,286047000.8,N
1691482995.6,286047002.5,N
1691483015.4,286047002.0,N
1691483035.3,286047002.2,N
1691483055.1,286047001.6,N
1691483075.9,286047000.2,N
1691483095.7,286047000.3,N
1691483115.5,286047000.6,N
1691483135.4,286047000.6,N
1691483155.2,286047000.0,N
1691483175.1,286046999.9,N
1691483176.0,286046999.9,N
1691483195.8,286047002.4,N
1691483215.6,286047000.8,N
1691483235.5,286047001.0,N
1691483255.3,286047002.4,N
1691483275.2,286047002.5,N
1691483295.0,286047000.5,N
1691483295.9,286047000.5,N
1691483315.7,286047000.5,N
1691483335.6,286047000.9,N
1691483355.4,286047000.0,N
1691483375.3,286047001.1,N
1691483395.1,286047000.4,N
1691483415.8,286046998.1,N
1691483435.7,286047001.1,N
1691483455.5,286046998.8,N
1691483475.4,286047000.8,N
1691483495.2,286047000.0,N
1691483515.0,286046999.9,N
1691483515.9,286046999.9,N
1691483535.8,286047000.1,N
1691483555.6,286047000.5,N
1691483575.5,286047000.9,N
1691483595.3,286047000.8,N
1691483615.1,286046998.5,N
1691483635.9,286046998.5,N
1691483655.7,286047001.1,N
1691483675.6,286046998.8,N
1691483695.4,286046998.5,N
1691483715.2,286046998.1,N
1691483735.1,286047000.4,N
1691483736.0,286047000.4,N
1691483755.8,286047001.0,N
1691483775.6,286046998.1,N
1691483795.5,286047000.6,N
1691483815.3,286047000.6,N
1691483835.2,286047001.1,N
1691483855.9,286047000.3,N
1691483875.7,286046999.9,N
1691483895.6,286047002.5,N
1691483915.4,286047002.6,N
1691483935.2,286047000.9,N
1691483955.1,286047000.5,N
1691483956.0,286047000.5,N
1691483975.8,286047000.4,N
1691483995.7,286047000.7,N
1691484015.5,286047001.2,N
1691484035.3,286046998.6,N
1691484055.2,286046999.3,N
1691484075.0,286046999.3,N
1691484075.9,286046999.3,N
1691484095.8,286046998.6,N
1691484115.6,286046998.4,N
1691484135.1,286046998.5,N
1691484136.0,286046998.5,N
1691484155.8,286047000.5,N
1691484175.6,286046998.6,N
1691484195.5,286046998.1,N
1691484215.3,286046998.4,N
1691484235.2,286046998.6,N
1691484255.9,286046999.6,N
1691484275.7,286046996.5,N
1691484295.6,286046997.0,N
1691484315.4,286046996.8,N
1691484335.2,286046997.1,N
1691484355.1,286046997.4,N
1691484356.0,286046997.4,N
1691484375.8,286046997.9,N
1691484395.7,286046997.9,N
1691484415.5,286046998.0,N
1691484435.3,286046996.8,N
1691484455.2,286046996.9,N
1691484475.0,286046999.6,N
1691484475.9,286046999.6,N
1691484495.7,286046999.0,N
1691484515.6,286046998.6,N
1691484535.4,286046998.7,N
1691484555.3,286046998.4,N
1691484575.1,286046998.2,N
1691484576.0,286046998.2,N
1691484595.8,286046998.7,N
1691484615.7,286046998.5,N
1691484635.5,286046998.5,N
1691484655.3,286046999.9,N
1691484675.2,286047000.8,N
1691484695.0,286047001.1,N
1691484695.9,286047001.1,N
1691484715.8,286047001.1,N
1691484735.6,286046998.2,N
1691484755.4,286047000.0,N
1691484775.3,286047001.2,N
1691484795.1,286047001.0,N
1691484815.8,286046998.7,N
1691484835.7,286047000.8,N
1691484855.5,286047001.1,N
1691484875.4,286047000.5,N
1691484895.2,286047000.5,N
1691484915.0,286047000.2,N
1691484915.9,286047000.2,N
1691484935.8,286047000.9,N
1691484955.6,286047000.5,N
1691484975.4,286047001.2,N
1691484995.3,286047000.5,N
1691485015.1,286047000.5,N
1691485035.9,286046999.8,N
1691485055.7,286047002.8,N
1691485075.5,286047002.6,N
1691485095.4,286047002.7,N
1691485115.2,286047002.2,N
1691485135.0,286047003.6,N
1691485136.0,286047003.6,N
1691485155.8,286047003.0,N
1691485175.6,286047004.1,Y
1691485195.5,286047002.0,P
